Precipitable_Water
0.60 0.68 0.73 0.74 0.71 0.70 0.69 0.68 0.68 0.69 0.68 0.66 0.64 0.62 0.60 0.59 0.58 0.57 0.57 0.58 0.59 0.63 0.61 0.59 0.58 0.57 0.56 0.54 0.53 0.52 0.53 0.42 0.39 0.36 0.34 0.35 0.42 0.44 0.47 0.48 0.48 0.51 0.52 0.49 0.45 0.41 0.37 0.38 0.38 0.42 0.41 0.41 0.39 0.38 0.41 0.42 0.40 0.37 0.30 0.28 0.26 0.28 0.27 0.30 0.29 0.29 0.30 0.28 0.41 0.44 0.48 0.44 0.42 0.49 0.52 0.61 0.55 0.52 0.55 0.57 0.63 0.67 0.64 0.68 0.69 0.84 0.97 1.08
0.59 0.66 0.72 0.73 0.71 0.70 0.69 0.69 0.68 0.68 0.67 0.65 0.64 0.61 0.60 0.59 0.58 0.57 0.57 0.59 0.59 0.62 0.61 0.60 0.59 0.57 0.57 0.55 0.56 0.55 0.49 0.43 0.34 0.33 0.29 0.35 0.41 0.46 0.47 0.48 0.50 0.54 0.53 0.45 0.42 0.39 0.36 0.37 0.38 0.40 0.38 0.36 0.41 0.36 0.40 0.35 0.39 0.31 0.28 0.28 0.25 0.29 0.30 0.33 0.31 0.31 0.28 0.27 0.37 0.44 0.48 0.43 0.43 0.47 0.51 0.46 0.46 0.48 0.46 0.51 0.56 0.51 0.60 0.69 0.71 0.85 0.94 0.98
0.58 0.64 0.71 0.73 0.71 0.69 0.68 0.69 0.68 0.68 0.68 0.65 0.63 0.62 0.60 0.59 0.58 0.58 0.58 0.59 0.58 0.59 0.59 0.58 0.59 0.60 0.58 0.59 0.59 0.56 0.51 0.38 0.36 0.26 0.27 0.37 0.39 0.43 0.47 0.48 0.50 0.53 0.50 0.43 0.43 0.41 0.39 0.40 0.40 0.39 0.38 0.35 0.37 0.33 0.36 0.33 0.35 0.33 0.28 0.24 0.26 0.31 0.31 0.32 0.32 0.30 0.30 0.30 0.35 0.42 0.46 0.44 0.46 0.48 0.54 0.43 0.44 0.49 0.42 0.41 0.47 0.45 0.46 0.53 0.64 0.80 0.89 0.91
0.58 0.63 0.70 0.72 0.71 0.69 0.68 0.66 0.68 0.68 0.68 0.65 0.64 0.62 0.60 0.60 0.59 0.58 0.58 0.58 0.57 0.56 0.56 0.56 0.57 0.58 0.60 0.59 0.60 0.58 0.51 0.36 0.24 0.30 0.37 0.39 0.37 0.38 0.41 0.47 0.50 0.53 0.51 0.47 0.45 0.42 0.44 0.43 0.41 0.39 0.37 0.35 0.35 0.36 0.33 0.34 0.31 0.32 0.29 0.25 0.27 0.31 0.29 0.30 0.32 0.31 0.32 0.32 0.35 0.41 0.45 0.42 0.47 0.49 0.50 0.45 0.44 0.45 0.46 0.48 0.39 0.39 0.45 0.51 0.63 0.72 0.84 0.85
0.58 0.61 0.69 0.72 0.71 0.68 0.67 0.65 0.64 0.65 0.67 0.66 0.64 0.62 0.61 0.60 0.59 0.59 0.59 0.59 0.57 0.55 0.55 0.55 0.55 0.57 0.57 0.59 0.62 0.60 0.39 0.31 0.25 0.41 0.44 0.46 0.44 0.38 0.38 0.43 0.48 0.49 0.48 0.46 0.43 0.42 0.43 0.40 0.38 0.37 0.36 0.31 0.32 0.33 0.33 0.34 0.34 0.32 0.29 0.30 0.30 0.31 0.29 0.31 0.32 0.33 0.34 0.33 0.38 0.41 0.38 0.38 0.49 0.51 0.48 0.46 0.37 0.38 0.43 0.45 0.49 0.44 0.50 0.52 0.60 0.69 0.78 0.79
0.58 0.60 0.67 0.72 0.73 0.69 0.67 0.65 0.63 0.63 0.63 0.65 0.64 0.63 0.61 0.61 0.60 0.60 0.60 0.60 0.58 0.56 0.55 0.55 0.56 0.56 0.59 0.62 0.60 0.59 0.41 0.22 0.40 0.45 0.58 0.50 0.42 0.37 0.40 0.43 0.46 0.47 0.46 0.43 0.40 0.38 0.37 0.37 0.35 0.33 0.33 0.31 0.30 0.29 0.33 0.34 0.35 0.28 0.30 0.31 0.31 0.32 0.30 0.32 0.33 0.35 0.37 0.33 0.36 0.37 0.39 0.43 0.43 0.44 0.50 0.46 0.41 0.42 0.49 0.49 0.50 0.55 0.53 0.56 0.63 0.69 0.71 0.74
0.57 0.59 0.65 0.72 0.74 0.71 0.67 0.66 0.63 0.61 0.61 0.62 0.62 0.60 0.61 0.61 0.60 0.60 0.60 0.61 0.59 0.57 0.58 0.58 0.59 0.59 0.59 0.62 0.60 0.50 0.42 0.37 0.52 0.53 0.63 0.58 0.43 0.36 0.40 0.43 0.46 0.44 0.43 0.39 0.38 0.36 0.34 0.32 0.34 0.33 0.31 0.30 0.31 0.31 0.32 0.33 0.34 0.31 0.28 0.30 0.30 0.32 0.31 0.33 0.33 0.35 0.35 0.34 0.34 0.40 0.45 0.39 0.43 0.37 0.50 0.45 0.46 0.48 0.52 0.58 0.58 0.66 0.72 0.73 0.67 0.69 0.65 0.67
0.56 0.58 0.63 0.71 0.74 0.74 0.69 0.67 0.65 0.62 0.60 0.60 0.60 0.59 0.60 0.62 0.61 0.61 0.61 0.61 0.59 0.58 0.60 0.60 0.60 0.59 0.60 0.52 0.44 0.42 0.42 0.45 0.57 0.71 0.70 0.67 0.56 0.46 0.42 0.39 0.40 0.40 0.39 0.37 0.36 0.33 0.33 0.30 0.29 0.34 0.30 0.28 0.31 0.31 0.33 0.31 0.32 0.29 0.29 0.31 0.31 0.32 0.32 0.34 0.35 0.33 0.32 0.37 0.42 0.44 0.39 0.39 0.42 0.41 0.48 0.44 0.47 0.51 0.59 0.66 0.68 0.70 0.73 0.75 0.71 0.71 0.74 0.74
0.54 0.55 0.60 0.69 0.74 0.76 0.72 0.68 0.67 0.64 0.62 0.59 0.59 0.58 0.60 0.62 0.62 0.62 0.61 0.61 0.60 0.60 0.61 0.63 0.60 0.60 0.65 0.54 0.43 0.40 0.41 0.58 0.69 0.75 0.75 0.70 0.60 0.51 0.45 0.33 0.35 0.33 0.34 0.36 0.37 0.35 0.31 0.29 0.31 0.33 0.27 0.29 0.33 0.30 0.31 0.29 0.27 0.30 0.30 0.31 0.31 0.31 0.32 0.34 0.35 0.34 0.31 0.37 0.43 0.42 0.39 0.43 0.47 0.54 0.46 0.48 0.51 0.60 0.71 0.70 0.70 0.70 0.69 0.73 0.73 0.76 0.72 0.72
0.53 0.53 0.57 0.66 0.73 0.77 0.76 0.70 0.67 0.67 0.65 0.62 0.61 0.62 0.63 0.63 0.63 0.63 0.63 0.62 0.61 0.62 0.63 0.63 0.63 0.63 0.57 0.46 0.45 0.36 0.51 0.71 0.81 0.86 0.82 0.73 0.63 0.53 0.45 0.41 0.38 0.33 0.29 0.31 0.33 0.32 0.29 0.32 0.31 0.35 0.34 0.31 0.33 0.30 0.32 0.30 0.28 0.32 0.31 0.31 0.30 0.30 0.31 0.34 0.34 0.36 0.36 0.39 0.42 0.38 0.39 0.41 0.50 0.49 0.41 0.53 0.58 0.67 0.71 0.69 0.73 0.69 0.67 0.74 0.76 0.79 0.83 0.76
0.50 0.50 0.54 0.62 0.72 0.76 0.78 0.76 0.69 0.67 0.67 0.65 0.65 0.65 0.66 0.65 0.65 0.65 0.64 0.63 0.63 0.65 0.65 0.65 0.66 0.63 0.47 0.48 0.38 0.36 0.67 0.73 0.80 0.81 0.79 0.74 0.61 0.51 0.44 0.43 0.41 0.35 0.30 0.29 0.28 0.30 0.30 0.34 0.35 0.35 0.32 0.30 0.31 0.30 0.30 0.29 0.30 0.29 0.30 0.31 0.30 0.30 0.32 0.34 0.35 0.38 0.39 0.40 0.43 0.42 0.39 0.45 0.49 0.48 0.41 0.47 0.59 0.68 0.65 0.69 0.71 0.70 0.71 0.75 0.80 0.81 0.84 0.86
0.49 0.48 0.51 0.58 0.68 0.75 0.76 0.77 0.74 0.69 0.68 0.67 0.66 0.66 0.67 0.66 0.67 0.67 0.66 0.66 0.66 0.67 0.67 0.67 0.68 0.64 0.53 0.42 0.41 0.41 0.68 0.70 0.76 0.75 0.73 0.69 0.59 0.53 0.48 0.46 0.42 0.36 0.32 0.24 0.25 0.29 0.31 0.35 0.37 0.34 0.27 0.34 0.28 0.31 0.29 0.31 0.29 0.28 0.29 0.27 0.28 0.30 0.30 0.35 0.34 0.39 0.40 0.38 0.46 0.47 0.41 0.40 0.43 0.39 0.44 0.53 0.63 0.68 0.66 0.67 0.69 0.69 0.74 0.78 0.83 0.86 0.86 0.84
0.49 0.48 0.48 0.54 0.65 0.72 0.75 0.76 0.74 0.72 0.70 0.69 0.67 0.68 0.68 0.68 0.67 0.68 0.67 0.66 0.68 0.68 0.68 0.69 0.69 0.66 0.49 0.32 0.43 0.53 0.63 0.71 0.72 0.72 0.71 0.67 0.62 0.58 0.51 0.47 0.43 0.40 0.34 0.25 0.24 0.28 0.30 0.31 0.33 0.31 0.35 0.32 0.30 0.26 0.31 0.31 0.29 0.29 0.28 0.27 0.26 0.27 0.29 0.35 0.38 0.40 0.41 0.42 0.47 0.47 0.31 0.34 0.38 0.41 0.47 0.59 0.63 0.67 0.65 0.64 0.68 0.68 0.72 0.77 0.81 0.83 0.84 0.87
0.49 0.49 0.49 0.51 0.61 0.70 0.73 0.74 0.73 0.71 0.73 0.72 0.70 0.69 0.70 0.70 0.71 0.69 0.68 0.66 0.69 0.68 0.68 0.69 0.71 0.62 0.45 0.33 0.48 0.58 0.67 0.75 0.75 0.70 0.68 0.67 0.56 0.49 0.45 0.45 0.41 0.38 0.33 0.27 0.27 0.30 0.31 0.34 0.33 0.34 0.37 0.31 0.28 0.34 0.28 0.28 0.29 0.25 0.28 0.28 0.26 0.27 0.28 0.37 0.38 0.39 0.37 0.44 0.48 0.47 0.30 0.33 0.38 0.42 0.49 0.58 0.64 0.60 0.56 0.61 0.65 0.67 0.70 0.74 0.78 0.80 0.79 0.82
0.49 0.50 0.50 0.51 0.58 0.66 0.72 0.73 0.73 0.72 0.72 0.74 0.72 0.72 0.73 0.71 0.72 0.71 0.70 0.67 0.68 0.69 0.68 0.70 0.68 0.50 0.37 0.37 0.53 0.67 0.73 0.73 0.65 0.67 0.72 0.63 0.53 0.44 0.36 0.35 0.32 0.32 0.29 0.27 0.27 0.29 0.32 0.33 0.33 0.30 0.29 0.33 0.32 0.28 0.25 0.25 0.27 0.28 0.25 0.25 0.30 0.30 0.33 0.37 0.41 0.41 0.37 0.42 0.49 0.45 0.33 0.33 0.36 0.41 0.47 0.56 0.63 0.62 0.55 0.59 0.62 0.64 0.66 0.70 0.74 0.75 0.77 0.78
0.49 0.50 0.50 0.52 0.57 0.63 0.68 0.71 0.72 0.72 0.73 0.74 0.72 0.73 0.75 0.77 0.74 0.73 0.71 0.69 0.70 0.71 0.71 0.57 0.57 0.51 0.38 0.33 0.48 0.75 0.64 0.55 0.59 0.71 0.74 0.66 0.52 0.39 0.37 0.34 0.34 0.32 0.31 0.30 0.32 0.32 0.34 0.33 0.30 0.30 0.30 0.30 0.27 0.24 0.24 0.23 0.25 0.31 0.29 0.29 0.31 0.34 0.34 0.35 0.40 0.41 0.41 0.42 0.50 0.43 0.33 0.35 0.35 0.39 0.47 0.56 0.60 0.60 0.55 0.57 0.60 0.62 0.63 0.67 0.70 0.72 0.75 0.78
0.49 0.51 0.52 0.54 0.59 0.62 0.66 0.70 0.71 0.72 0.73 0.75 0.76 0.75 0.76 0.76 0.76 0.75 0.73 0.72 0.70 0.72 0.69 0.50 0.58 0.63 0.30 0.55 0.70 0.53 0.54 0.62 0.71 0.71 0.72 0.67 0.54 0.44 0.40 0.35 0.33 0.31 0.33 0.33 0.34 0.34 0.34 0.30 0.31 0.29 0.29 0.26 0.26 0.25 0.21 0.21 0.25 0.30 0.35 0.32 0.35 0.34 0.35 0.33 0.41 0.43 0.43 0.42 0.38 0.43 0.36 0.35 0.39 0.45 0.47 0.55 0.59 0.58 0.54 0.54 0.58 0.61 0.62 0.65 0.69 0.71 0.73 0.74
0.47 0.50 0.53 0.57 0.60 0.64 0.66 0.69 0.73 0.76 0.75 0.78 0.75 0.75 0.73 0.74 0.75 0.69 0.67 0.68 0.72 0.68 0.67 0.71 0.66 0.48 0.36 0.54 0.44 0.49 0.61 0.61 0.63 0.67 0.67 0.65 0.55 0.46 0.41 0.37 0.35 0.33 0.32 0.29 0.33 0.29 0.31 0.26 0.27 0.23 0.25 0.25 0.24 0.24 0.22 0.23 0.30 0.31 0.32 0.31 0.33 0.35 0.36 0.35 0.35 0.39 0.42 0.41 0.37 0.39 0.38 0.36 0.36 0.39 0.45 0.52 0.59 0.56 0.51 0.51 0.55 0.58 0.61 0.65 0.67 0.69 0.71 0.72
0.43 0.47 0.53 0.59 0.64 0.65 0.67 0.68 0.70 0.73 0.80 0.85 0.83 0.83 0.82 0.80 0.75 0.68 0.55 0.58 0.47 0.40 0.32 0.37 0.38 0.26 0.32 0.44 0.57 0.59 0.59 0.63 0.65 0.63 0.60 0.56 0.54 0.49 0.44 0.42 0.38 0.32 0.26 0.24 0.26 0.27 0.28 0.25 0.25 0.22 0.20 0.21 0.24 0.26 0.25 0.29 0.32 0.31 0.32 0.32 0.33 0.32 0.33 0.34 0.38 0.41 0.39 0.35 0.34 0.35 0.32 0.33 0.35 0.36 0.40 0.48 0.54 0.53 0.53 0.58 0.59 0.61 0.64 0.65 0.66 0.68 0.70 0.70
0.41 0.42 0.47 0.58 0.66 0.69 0.69 0.69 0.70 0.74 0.81 0.78 0.76 0.74 0.71 0.55 0.52 0.51 0.61 0.55 0.43 0.39 0.37 0.42 0.45 0.43 0.49 0.54 0.53 0.62 0.67 0.65 0.54 0.56 0.60 0.60 0.51 0.45 0.42 0.39 0.35 0.31 0.26 0.21 0.24 0.25 0.28 0.21 0.19 0.19 0.22 0.25 0.27 0.28 0.29 0.32 0.33 0.34 0.34 0.34 0.33 0.33 0.35 0.37 0.38 0.40 0.40 0.37 0.34 0.32 0.32 0.33 0.33 0.35 0.39 0.44 0.52 0.52 0.54 0.53 0.55 0.58 0.60 0.61 0.63 0.66 0.68 0.70
0.41 0.40 0.41 0.50 0.62 0.67 0.70 0.71 0.70 0.71 0.76 0.73 0.70 0.60 0.43 0.45 0.37 0.36 0.48 0.51 0.54 0.53 0.46 0.45 0.47 0.45 0.48 0.56 0.59 0.58 0.50 0.52 0.54 0.52 0.55 0.61 0.50 0.42 0.37 0.35 0.31 0.25 0.25 0.26 0.24 0.28 0.26 0.21 0.22 0.26 0.28 0.30 0.32 0.34 0.35 0.35 0.35 0.33 0.33 0.33 0.33 0.34 0.33 0.37 0.37 0.39 0.38 0.34 0.32 0.33 0.31 0.31 0.32 0.35 0.40 0.47 0.48 0.46 0.48 0.50 0.53 0.55 0.58 0.59 0.62 0.62 0.66 0.71
0.43 0.40 0.40 0.45 0.54 0.62 0.67 0.71 0.71 0.72 0.72 0.68 0.61 0.50 0.52 0.53 0.58 0.65 0.54 0.35 0.47 0.52 0.52 0.51 0.56 0.50 0.60 0.59 0.63 0.62 0.58 0.47 0.44 0.47 0.54 0.53 0.45 0.34 0.34 0.31 0.28 0.24 0.26 0.26 0.25 0.23 0.22 0.22 0.26 0.30 0.34 0.36 0.36 0.36 0.36 0.34 0.33 0.34 0.32 0.33 0.32 0.33 0.35 0.37 0.36 0.35 0.34 0.33 0.30 0.31 0.29 0.29 0.31 0.33 0.39 0.43 0.45 0.47 0.51 0.52 0.53 0.55 0.57 0.57 0.59 0.62 0.65 0.69
0.45 0.41 0.39 0.45 0.52 0.57 0.61 0.69 0.71 0.76 0.68 0.56 0.47 0.48 0.43 0.51 0.58 0.72 0.61 0.46 0.37 0.49 0.46 0.47 0.46 0.51 0.54 0.61 0.63 0.64 0.47 0.41 0.38 0.44 0.47 0.47 0.41 0.35 0.33 0.28 0.27 0.27 0.26 0.25 0.21 0.22 0.21 0.26 0.31 0.34 0.36 0.35 0.35 0.35 0.34 0.34 0.34 0.33 0.32 0.30 0.29 0.32 0.30 0.27 0.31 0.33 0.32 0.31 0.29 0.29 0.27 0.28 0.31 0.33 0.37 0.45 0.47 0.51 0.56 0.57 0.56 0.57 0.56 0.55 0.55 0.60 0.62 0.64
0.43 0.44 0.41 0.45 0.54 0.56 0.61 0.62 0.67 0.68 0.64 0.59 0.55 0.48 0.50 0.52 0.54 0.57 0.45 0.32 0.29 0.34 0.40 0.46 0.48 0.51 0.52 0.49 0.59 0.54 0.44 0.44 0.43 0.41 0.51 0.47 0.37 0.38 0.32 0.29 0.27 0.26 0.24 0.25 0.25 0.25 0.26 0.30 0.35 0.35 0.36 0.34 0.33 0.34 0.33 0.31 0.30 0.33 0.32 0.31 0.29 0.29 0.29 0.27 0.27 0.29 0.30 0.31 0.30 0.28 0.25 0.25 0.28 0.28 0.30 0.39 0.46 0.47 0.50 0.55 0.55 0.57 0.57 0.57 0.60 0.61 0.64 0.65
0.39 0.44 0.44 0.48 0.55 0.59 0.59 0.61 0.54 0.54 0.61 0.59 0.53 0.57 0.55 0.51 0.49 0.55 0.38 0.32 0.29 0.26 0.49 0.46 0.52 0.51 0.56 0.66 0.63 0.49 0.49 0.48 0.46 0.49 0.49 0.47 0.39 0.36 0.31 0.32 0.28 0.24 0.25 0.27 0.28 0.28 0.29 0.34 0.36 0.36 0.35 0.34 0.33 0.32 0.32 0.30 0.27 0.29 0.32 0.32 0.31 0.30 0.28 0.28 0.27 0.25 0.23 0.23 0.26 0.25 0.20 0.21 0.25 0.27 0.28 0.31 0.35 0.38 0.46 0.46 0.45 0.47 0.51 0.54 0.51 0.52 0.60 0.64
0.34 0.41 0.45 0.48 0.56 0.61 0.62 0.43 0.41 0.48 0.45 0.39 0.45 0.55 0.57 0.52 0.48 0.50 0.42 0.24 0.16 0.27 0.37 0.27 0.47 0.40 0.60 0.48 0.56 0.51 0.51 0.38 0.48 0.50 0.50 0.50 0.49 0.40 0.35 0.30 0.30 0.25 0.27 0.27 0.29 0.30 0.32 0.37 0.36 0.36 0.35 0.34 0.33 0.32 0.33 0.32 0.28 0.26 0.29 0.34 0.33 0.31 0.28 0.27 0.25 0.23 0.20 0.18 0.23 0.26 0.20 0.19 0.24 0.25 0.26 0.28 0.27 0.27 0.35 0.40 0.43 0.48 0.49 0.50 0.50 0.51 0.55 0.58
0.30 0.36 0.42 0.47 0.51 0.58 0.44 0.34 0.46 0.44 0.30 0.32 0.43 0.50 0.51 0.48 0.49 0.48 0.31 0.20 0.14 0.34 0.33 0.41 0.35 0.43 0.52 0.54 0.51 0.51 0.29 0.32 0.47 0.52 0.48 0.52 0.43 0.46 0.34 0.30 0.32 0.33 0.31 0.31 0.28 0.28 0.35 0.36 0.36 0.36 0.35 0.33 0.32 0.30 0.33 0.33 0.29 0.26 0.32 0.31 0.31 0.29 0.26 0.25 0.24 0.23 0.22 0.25 0.25 0.25 0.24 0.20 0.20 0.24 0.27 0.30 0.25 0.23 0.24 0.28 0.34 0.41 0.45 0.49 0.52 0.54 0.56 0.60
0.27 0.30 0.36 0.44 0.49 0.49 0.39 0.45 0.40 0.31 0.31 0.38 0.48 0.48 0.49 0.47 0.54 0.58 0.30 0.09 0.09 0.38 0.34 0.39 0.39 0.53 0.49 0.53 0.54 0.42 0.41 0.42 0.34 0.43 0.50 0.55 0.49 0.43 0.35 0.32 0.31 0.32 0.33 0.31 0.21 0.32 0.36 0.35 0.34 0.33 0.33 0.32 0.31 0.33 0.34 0.34 0.29 0.29 0.32 0.31 0.29 0.28 0.26 0.25 0.24 0.24 0.23 0.21 0.19 0.22 0.24 0.20 0.20 0.22 0.25 0.29 0.22 0.24 0.26 0.29 0.32 0.35 0.39 0.42 0.46 0.50 0.54 0.60
0.25 0.27 0.31 0.36 0.43 0.46 0.51 0.44 0.39 0.33 0.38 0.45 0.43 0.44 0.42 0.58 0.58 0.36 0.22 0.11 0.32 0.32 0.47 0.34 0.49 0.45 0.43 0.48 0.47 0.48 0.44 0.44 0.35 0.43 0.48 0.53 0.53 0.43 0.34 0.36 0.35 0.35 0.36 0.33 0.27 0.32 0.36 0.35 0.35 0.34 0.32 0.30 0.33 0.35 0.35 0.34 0.29 0.32 0.33 0.32 0.30 0.29 0.28 0.27 0.25 0.24 0.24 0.20 0.16 0.20 0.22 0.18 0.19 0.21 0.22 0.29 0.28 0.27 0.27 0.30 0.33 0.36 0.39 0.42 0.45 0.48 0.52 0.58
0.23 0.25 0.29 0.32 0.33 0.31 0.32 0.44 0.33 0.38 0.44 0.41 0.42 0.41 0.47 0.50 0.39 0.19 0.13 0.09 0.35 0.26 0.37 0.40 0.38 0.37 0.38 0.34 0.38 0.44 0.42 0.43 0.42 0.44 0.45 0.44 0.47 0.46 0.42 0.43 0.37 0.34 0.32 0.34 0.32 0.34 0.37 0.39 0.39 0.34 0.31 0.33 0.34 0.36 0.35 0.34 0.33 0.34 0.32 0.29 0.28 0.28 0.28 0.28 0.27 0.25 0.23 0.19 0.20 0.22 0.23 0.20 0.16 0.21 0.25 0.25 0.26 0.31 0.31 0.32 0.35 0.38 0.40 0.42 0.46 0.49 0.53 0.58
0.21 0.23 0.28 0.34 0.24 0.26 0.27 0.20 0.27 0.37 0.40 0.40 0.38 0.41 0.45 0.38 0.23 0.14 0.08 0.15 0.32 0.34 0.39 0.38 0.34 0.40 0.36 0.35 0.33 0.40 0.40 0.43 0.41 0.41 0.39 0.42 0.40 0.42 0.42 0.37 0.40 0.35 0.33 0.33 0.31 0.34 0.35 0.36 0.34 0.35 0.37 0.35 0.35 0.33 0.35 0.35 0.34 0.32 0.30 0.28 0.26 0.25 0.27 0.25 0.24 0.25 0.19 0.18 0.22 0.25 0.24 0.23 0.17 0.23 0.28 0.33 0.38 0.41 0.42 0.41 0.42 0.43 0.44 0.46 0.47 0.47 0.51 0.58
0.20 0.20 0.26 0.32 0.33 0.40 0.22 0.19 0.28 0.35 0.37 0.41 0.41 0.31 0.36 0.15 0.24 0.12 0.10 0.36 0.22 0.31 0.31 0.34 0.38 0.38 0.36 0.38 0.37 0.38 0.36 0.39 0.42 0.39 0.36 0.36 0.36 0.34 0.35 0.30 0.34 0.26 0.25 0.26 0.26 0.31 0.29 0.31 0.35 0.35 0.39 0.34 0.31 0.29 0.30 0.32 0.32 0.30 0.28 0.26 0.21 0.20 0.20 0.18 0.20 0.17 0.18 0.18 0.24 0.26 0.27 0.23 0.23 0.26 0.32 0.34 0.37 0.41 0.44 0.44 0.45 0.47 0.48 0.48 0.48 0.50 0.56 0.62
0.20 0.20 0.23 0.32 0.38 0.32 0.32 0.33 0.34 0.31 0.35 0.43 0.39 0.35 0.18 0.12 0.08 0.13 0.17 0.26 0.23 0.32 0.31 0.36 0.36 0.37 0.35 0.35 0.35 0.38 0.40 0.34 0.40 0.37 0.38 0.38 0.35 0.35 0.39 0.37 0.37 0.32 0.24 0.29 0.26 0.26 0.27 0.32 0.33 0.33 0.34 0.36 0.32 0.25 0.25 0.25 0.28 0.28 0.26 0.24 0.21 0.17 0.17 0.15 0.17 0.20 0.20 0.23 0.27 0.25 0.28 0.23 0.27 0.30 0.36 0.35 0.38 0.41 0.43 0.44 0.45 0.46 0.48 0.51 0.54 0.54 0.55 0.60
0.19 0.20 0.19 0.30 0.36 0.38 0.36 0.37 0.33 0.31 0.31 0.44 0.35 0.25 0.24 0.11 0.08 0.28 0.16 0.22 0.26 0.33 0.33 0.33 0.35 0.38 0.37 0.33 0.37 0.39 0.34 0.39 0.37 0.34 0.36 0.34 0.34 0.31 0.34 0.38 0.37 0.33 0.31 0.31 0.26 0.26 0.21 0.23 0.28 0.30 0.28 0.36 0.33 0.30 0.28 0.27 0.28 0.29 0.30 0.27 0.24 0.22 0.19 0.16 0.18 0.16 0.18 0.21 0.24 0.29 0.24 0.22 0.21 0.25 0.35 0.36 0.38 0.39 0.41 0.40 0.40 0.41 0.43 0.48 0.54 0.59 0.60 0.62
0.19 0.19 0.25 0.33 0.38 0.38 0.36 0.35 0.32 0.31 0.33 0.34 0.31 0.23 0.13 0.11 0.17 0.15 0.16 0.19 0.27 0.31 0.31 0.35 0.32 0.33 0.33 0.35 0.39 0.40 0.38 0.33 0.38 0.35 0.34 0.32 0.31 0.31 0.31 0.33 0.38 0.37 0.35 0.28 0.32 0.30 0.28 0.27 0.33 0.38 0.36 0.37 0.34 0.36 0.36 0.32 0.30 0.32 0.32 0.32 0.27 0.25 0.28 0.21 0.23 0.22 0.22 0.22 0.23 0.25 0.25 0.28 0.27 0.35 0.37 0.39 0.38 0.38 0.38 0.38 0.37 0.35 0.36 0.40 0.43 0.47 0.53 0.60
0.16 0.16 0.32 0.31 0.31 0.35 0.37 0.34 0.31 0.32 0.30 0.31 0.24 0.18 0.14 0.16 0.14 0.18 0.17 0.21 0.25 0.28 0.31 0.33 0.32 0.29 0.31 0.32 0.37 0.36 0.42 0.33 0.37 0.34 0.33 0.33 0.34 0.32 0.36 0.38 0.37 0.39 0.34 0.29 0.34 0.28 0.30 0.27 0.35 0.37 0.39 0.38 0.37 0.39 0.38 0.37 0.25 0.32 0.31 0.28 0.30 0.36 0.32 0.28 0.29 0.30 0.29 0.25 0.23 0.29 0.27 0.29 0.33 0.33 0.36 0.36 0.36 0.35 0.36 0.36 0.35 0.35 0.33 0.33 0.37 0.43 0.48 0.54
0.13 0.17 0.20 0.33 0.29 0.34 0.37 0.31 0.26 0.29 0.29 0.26 0.24 0.17 0.19 0.18 0.18 0.20 0.21 0.18 0.22 0.27 0.29 0.26 0.28 0.27 0.27 0.28 0.31 0.33 0.36 0.38 0.35 0.34 0.29 0.36 0.31 0.35 0.35 0.37 0.42 0.40 0.41 0.34 0.31 0.36 0.26 0.27 0.35 0.34 0.32 0.38 0.41 0.40 0.40 0.40 0.38 0.33 0.27 0.31 0.36 0.39 0.36 0.29 0.23 0.25 0.24 0.20 0.21 0.25 0.23 0.24 0.24 0.21 0.34 0.35 0.33 0.34 0.34 0.34 0.33 0.32 0.31 0.30 0.31 0.34 0.43 0.49
0.16 0.16 0.19 0.22 0.24 0.30 0.30 0.29 0.27 0.31 0.28 0.23 0.20 0.21 0.26 0.16 0.18 0.18 0.19 0.20 0.20 0.22 0.24 0.26 0.30 0.34 0.28 0.29 0.29 0.31 0.35 0.31 0.35 0.35 0.30 0.34 0.28 0.39 0.36 0.35 0.40 0.39 0.40 0.42 0.33 0.34 0.35 0.26 0.31 0.36 0.36 0.38 0.42 0.40 0.37 0.41 0.43 0.34 0.32 0.39 0.29 0.24 0.24 0.29 0.26 0.20 0.19 0.19 0.20 0.22 0.24 0.24 0.24 0.25 0.31 0.31 0.32 0.32 0.33 0.33 0.32 0.31 0.30 0.30 0.31 0.32 0.35 0.41
0.19 0.14 0.09 0.18 0.25 0.27 0.26 0.33 0.31 0.29 0.25 0.21 0.22 0.18 0.18 0.17 0.19 0.19 0.19 0.19 0.20 0.19 0.18 0.23 0.26 0.32 0.33 0.29 0.30 0.33 0.34 0.28 0.35 0.34 0.29 0.33 0.28 0.36 0.36 0.38 0.35 0.40 0.40 0.39 0.35 0.36 0.36 0.25 0.27 0.36 0.36 0.38 0.39 0.37 0.28 0.34 0.41 0.41 0.40 0.35 0.38 0.31 0.27 0.24 0.25 0.26 0.24 0.19 0.19 0.19 0.22 0.21 0.28 0.30 0.33 0.33 0.33 0.33 0.32 0.32 0.32 0.31 0.31 0.32 0.33 0.36 0.38 0.39
0.14 0.10 0.09 0.21 0.23 0.25 0.25 0.33 0.31 0.27 0.22 0.20 0.20 0.18 0.19 0.18 0.19 0.20 0.21 0.19 0.18 0.17 0.18 0.19 0.25 0.26 0.30 0.31 0.32 0.29 0.32 0.32 0.33 0.34 0.33 0.36 0.33 0.39 0.37 0.41 0.37 0.38 0.40 0.40 0.36 0.40 0.32 0.34 0.24 0.33 0.39 0.37 0.30 0.37 0.33 0.34 0.32 0.34 0.34 0.33 0.34 0.34 0.37 0.33 0.32 0.27 0.24 0.22 0.21 0.20 0.19 0.23 0.31 0.38 0.37 0.36 0.35 0.33 0.33 0.32 0.33 0.33 0.33 0.33 0.35 0.36 0.37 0.39
0.21 0.13 0.14 0.21 0.22 0.24 0.21 0.25 0.22 0.18 0.19 0.22 0.21 0.19 0.20 0.18 0.20 0.20 0.21 0.21 0.20 0.22 0.19 0.20 0.21 0.21 0.25 0.27 0.28 0.33 0.30 0.31 0.31 0.32 0.34 0.34 0.35 0.31 0.41 0.42 0.43 0.39 0.41 0.39 0.36 0.37 0.33 0.33 0.26 0.30 0.31 0.30 0.34 0.41 0.41 0.39 0.39 0.35 0.35 0.33 0.34 0.32 0.30 0.25 0.24 0.34 0.31 0.26 0.23 0.22 0.19 0.25 0.34 0.41 0.38 0.36 0.36 0.35 0.36 0.35 0.34 0.34 0.34 0.34 0.36 0.38 0.39 0.39
0.12 0.09 0.10 0.21 0.24 0.20 0.16 0.14 0.19 0.24 0.19 0.18 0.17 0.19 0.19 0.23 0.19 0.20 0.21 0.21 0.21 0.20 0.23 0.21 0.22 0.21 0.22 0.22 0.26 0.29 0.30 0.30 0.30 0.32 0.34 0.32 0.39 0.37 0.42 0.49 0.46 0.46 0.40 0.35 0.35 0.40 0.39 0.38 0.32 0.29 0.31 0.32 0.36 0.43 0.46 0.45 0.42 0.40 0.38 0.35 0.38 0.37 0.34 0.29 0.23 0.26 0.30 0.29 0.30 0.27 0.22 0.21 0.36 0.39 0.38 0.37 0.37 0.37 0.38 0.37 0.34 0.34 0.35 0.35 0.37 0.39 0.39 0.39
0.13 0.10 0.18 0.24 0.24 0.18 0.13 0.12 0.18 0.17 0.17 0.19 0.23 0.21 0.22 0.20 0.20 0.20 0.19 0.20 0.19 0.21 0.20 0.20 0.20 0.19 0.21 0.20 0.21 0.22 0.26 0.28 0.31 0.30 0.34 0.36 0.37 0.42 0.46 0.47 0.47 0.44 0.42 0.38 0.41 0.39 0.50 0.33 0.28 0.28 0.31 0.35 0.40 0.45 0.46 0.46 0.44 0.39 0.39 0.39 0.37 0.33 0.34 0.32 0.31 0.31 0.26 0.27 0.25 0.25 0.20 0.22 0.35 0.39 0.39 0.39 0.39 0.39 0.39 0.38 0.35 0.34 0.34 0.34 0.36 0.37 0.38 0.38
0.16 0.16 0.15 0.25 0.25 0.18 0.12 0.10 0.11 0.15 0.17 0.19 0.19 0.18 0.21 0.19 0.20 0.18 0.18 0.20 0.20 0.20 0.20 0.21 0.22 0.24 0.21 0.24 0.23 0.20 0.22 0.19 0.29 0.32 0.33 0.38 0.36 0.46 0.44 0.43 0.43 0.39 0.38 0.35 0.33 0.38 0.30 0.32 0.28 0.23 0.22 0.23 0.28 0.34 0.37 0.40 0.38 0.35 0.35 0.35 0.35 0.35 0.33 0.34 0.34 0.36 0.27 0.26 0.26 0.22 0.16 0.19 0.31 0.38 0.40 0.39 0.38 0.36 0.36 0.36 0.37 0.33 0.33 0.33 0.34 0.36 0.38 0.39
0.19 0.22 0.24 0.20 0.23 0.16 0.12 0.16 0.13 0.14 0.15 0.16 0.17 0.16 0.16 0.17 0.20 0.20 0.18 0.20 0.22 0.21 0.20 0.20 0.22 0.24 0.23 0.25 0.23 0.24 0.25 0.22 0.22 0.30 0.31 0.33 0.34 0.42 0.43 0.42 0.42 0.36 0.40 0.44 0.40 0.38 0.26 0.26 0.22 0.17 0.16 0.15 0.15 0.16 0.19 0.25 0.29 0.31 0.33 0.32 0.31 0.30 0.29 0.27 0.25 0.29 0.24 0.26 0.27 0.21 0.18 0.24 0.32 0.33 0.35 0.37 0.34 0.31 0.30 0.31 0.32 0.33 0.34 0.33 0.32 0.32 0.33 0.34
0.17 0.09 0.15 0.14 0.20 0.18 0.17 0.23 0.19 0.16 0.16 0.16 0.16 0.18 0.19 0.16 0.19 0.22 0.20 0.19 0.23 0.22 0.23 0.21 0.24 0.24 0.22 0.22 0.21 0.21 0.21 0.25 0.20 0.23 0.27 0.28 0.32 0.35 0.36 0.36 0.35 0.32 0.33 0.33 0.31 0.30 0.24 0.26 0.22 0.18 0.16 0.15 0.15 0.16 0.21 0.20 0.18 0.16 0.20 0.22 0.22 0.24 0.24 0.21 0.21 0.18 0.17 0.20 0.19 0.19 0.22 0.22 0.24 0.26 0.25 0.28 0.28 0.27 0.28 0.29 0.29 0.30 0.31 0.33 0.34 0.33 0.33 0.34
0.30 0.17 0.17 0.11 0.15 0.18 0.16 0.19 0.17 0.18 0.16 0.18 0.15 0.18 0.17 0.19 0.19 0.19 0.22 0.17 0.22 0.20 0.22 0.22 0.22 0.18 0.20 0.19 0.18 0.18 0.21 0.19 0.22 0.21 0.22 0.23 0.28 0.30 0.34 0.32 0.30 0.30 0.29 0.24 0.25 0.20 0.17 0.15 0.16 0.17 0.16 0.16 0.18 0.18 0.21 0.19 0.15 0.15 0.14 0.13 0.14 0.14 0.14 0.13 0.12 0.11 0.15 0.12 0.09 0.12 0.15 0.13 0.13 0.16 0.17 0.21 0.24 0.26 0.28 0.29 0.29 0.31 0.32 0.32 0.34 0.36 0.37 0.37
0.19 0.27 0.30 0.27 0.16 0.14 0.15 0.15 0.19 0.17 0.18 0.18 0.15 0.20 0.17 0.17 0.17 0.16 0.21 0.22 0.22 0.22 0.15 0.19 0.20 0.20 0.21 0.17 0.19 0.15 0.18 0.18 0.18 0.16 0.21 0.22 0.22 0.26 0.26 0.29 0.25 0.27 0.25 0.21 0.22 0.16 0.12 0.10 0.14 0.14 0.14 0.16 0.16 0.15 0.14 0.13 0.12 0.10 0.09 0.09 0.09 0.09 0.09 0.08 0.08 0.09 0.10 0.08 0.07 0.09 0.12 0.09 0.10 0.14 0.21 0.26 0.29 0.30 0.31 0.33 0.36 0.38 0.39 0.39 0.38 0.37 0.36 0.37
0.28 0.31 0.26 0.36 0.22 0.23 0.21 0.23 0.23 0.19 0.17 0.18 0.16 0.18 0.16 0.16 0.15 0.19 0.19 0.19 0.20 0.21 0.21 0.14 0.18 0.19 0.19 0.21 0.17 0.15 0.18 0.13 0.14 0.19 0.18 0.19 0.19 0.20 0.19 0.23 0.27 0.27 0.24 0.20 0.20 0.19 0.14 0.12 0.15 0.14 0.12 0.11 0.11 0.11 0.11 0.10 0.09 0.09 0.09 0.09 0.09 0.10 0.09 0.09 0.09 0.10 0.11 0.10 0.10 0.10 0.11 0.11 0.13 0.17 0.25 0.30 0.34 0.36 0.38 0.40 0.40 0.39 0.38 0.39 0.38 0.37 0.37 0.38
0.20 0.21 0.21 0.30 0.27 0.24 0.25 0.25 0.23 0.19 0.17 0.21 0.16 0.20 0.19 0.18 0.16 0.19 0.21 0.19 0.16 0.19 0.25 0.18 0.20 0.21 0.22 0.22 0.21 0.16 0.19 0.18 0.18 0.16 0.22 0.20 0.20 0.21 0.20 0.21 0.23 0.26 0.24 0.20 0.20 0.21 0.14 0.12 0.19 0.15 0.11 0.10 0.10 0.10 0.11 0.10 0.10 0.09 0.10 0.11 0.12 0.12 0.12 0.12 0.13 0.12 0.14 0.13 0.13 0.12 0.13 0.13 0.23 0.29 0.31 0.37 0.38 0.40 0.40 0.38 0.39 0.40 0.41 0.40 0.38 0.38 0.38 0.39
0.33 0.36 0.33 0.23 0.19 0.23 0.24 0.23 0.20 0.19 0.17 0.21 0.18 0.22 0.22 0.22 0.19 0.23 0.22 0.26 0.21 0.20 0.22 0.20 0.23 0.23 0.24 0.23 0.23 0.22 0.26 0.25 0.26 0.25 0.27 0.26 0.21 0.27 0.22 0.24 0.27 0.22 0.23 0.22 0.21 0.19 0.16 0.13 0.16 0.13 0.09 0.09 0.11 0.11 0.12 0.14 0.14 0.13 0.13 0.13 0.12 0.12 0.11 0.12 0.12 0.14 0.14 0.13 0.15 0.16 0.14 0.15 0.27 0.33 0.35 0.36 0.36 0.35 0.35 0.37 0.38 0.40 0.40 0.39 0.38 0.38 0.39 0.39
0.36 0.41 0.39 0.30 0.19 0.29 0.22 0.24 0.23 0.20 0.17 0.21 0.21 0.23 0.22 0.23 0.25 0.26 0.21 0.28 0.28 0.27 0.26 0.25 0.25 0.23 0.23 0.22 0.22 0.25 0.28 0.30 0.30 0.31 0.33 0.33 0.33 0.32 0.31 0.30 0.28 0.24 0.23 0.22 0.23 0.19 0.17 0.15 0.13 0.12 0.10 0.10 0.12 0.15 0.15 0.14 0.14 0.11 0.11 0.12 0.14 0.16 0.16 0.18 0.19 0.21 0.19 0.18 0.15 0.13 0.13 0.24 0.27 0.31 0.27 0.29 0.32 0.33 0.35 0.37 0.38 0.39 0.39 0.38 0.37 0.38 0.39 0.40
Wind_Speed
3 3 3 2 2 1 2 3 4 6 8 10 12 13 13 13 13 13 14 14 13 13 12 11 10 10 9 8 8 8 8 7 7 7 9 10 11 12 11 10 8 8 9 8 6 6 4 3 3 3 3 2 1 0 2 2 3 5 6 6 6 6 7 7 6 5 5 4 4 5 8 10 9 8 8 8 9 9 9 9 9 9 10 12 13 15 18 17
3 3 3 3 2 1 1 2 4 5 7 10 12 13 13 13 13 13 14 14 13 13 12 11 10 9 9 8 8 7 7 7 7 8 10 10 10 12 12 12 10 9 9 8 7 7 5 4 4 3 2 2 1 0 1 1 2 3 4 5 5 4 5 6 5 4 4 4 7 7 7 9 8 8 8 8 8 8 8 7 8 9 10 12 13 15 16 16
3 3 3 3 2 1 1 2 3 5 7 10 12 12 13 13 13 13 14 14 13 12 12 11 10 9 9 8 7 7 7 7 7 8 8 9 11 12 12 12 12 11 9 8 7 7 6 6 5 3 2 2 1 1 1 1 1 2 3 4 3 3 5 7 6 3 3 4 9 8 6 6 7 8 7 7 8 7 6 6 8 9 9 11 12 13 14 14
3 3 3 3 2 1 1 2 3 5 7 9 11 12 13 13 13 13 13 13 13 12 12 11 10 9 8 8 7 7 6 5 6 7 7 7 10 12 13 13 12 12 10 9 8 7 7 6 5 4 3 3 2 2 2 1 1 2 2 1 2 4 5 7 8 6 3 5 10 9 6 6 6 7 6 8 8 5 4 5 7 9 10 11 11 12 12 12
3 3 3 3 2 1 1 2 3 5 7 9 11 12 12 12 13 13 13 13 13 12 12 11 10 9 9 8 7 7 6 5 6 6 6 6 8 10 12 12 12 12 11 9 8 7 7 6 5 4 3 3 3 2 3 3 2 2 1 1 2 3 4 7 8 7 5 6 9 8 6 6 6 6 6 7 6 3 3 5 7 8 10 11 10 11 11 11
2 2 2 2 2 1 1 2 3 5 6 8 10 11 12 12 12 12 12 13 12 12 12 11 10 9 9 8 7 7 6 5 5 6 5 5 6 9 11 11 11 11 10 9 9 8 7 7 6 5 4 3 3 3 4 4 3 2 2 2 2 2 2 5 7 6 5 6 8 7 5 6 6 4 5 6 4 2 3 6 7 7 9 9 9 10 10 10
3 2 2 2 2 1 1 3 4 5 6 8 9 10 11 12 12 12 12 12 12 12 12 11 10 10 9 8 7 7 7 7 6 5 5 5 6 8 10 10 10 10 10 9 9 8 8 7 6 6 4 3 4 4 5 5 3 2 3 3 3 4 3 4 5 5 2 5 6 6 6 6 6 4 4 5 4 2 2 4 6 7 7 8 8 8 9 9
3 2 2 2 2 1 2 3 4 5 6 7 8 10 11 11 12 12 12 12 12 12 11 11 10 10 9 8 7 6 7 7 6 5 5 5 6 7 8 9 9 9 9 9 9 9 8 7 7 6 4 5 5 5 5 5 4 3 3 5 5 6 6 6 6 4 0 4 5 6 5 5 5 4 4 4 5 1 2 4 5 6 7 6 6 6 7 8
3 2 2 1 1 1 2 3 4 5 6 7 8 9 10 11 11 11 12 12 12 12 11 11 10 10 9 8 7 6 7 7 6 5 5 5 6 7 8 8 9 9 9 9 9 9 9 8 8 7 6 6 6 5 4 3 4 4 5 5 5 7 7 6 6 2 2 4 5 5 3 3 3 3 3 5 4 2 2 4 4 5 6 5 5 5 6 7
4 3 2 1 1 1 1 3 4 5 6 7 7 8 9 10 11 11 11 11 11 11 11 11 10 10 9 8 7 7 7 6 5 5 6 6 6 7 8 8 9 9 8 8 8 9 9 8 7 8 7 7 6 6 5 4 6 7 7 7 6 8 7 4 3 1 3 4 5 4 2 2 2 1 2 5 4 3 3 3 3 4 5 5 5 4 5 7
3 3 2 1 1 1 1 3 4 5 6 6 7 8 8 9 10 10 11 11 11 11 11 11 10 10 9 8 8 8 7 6 5 5 5 6 7 7 8 8 9 9 8 8 9 9 9 8 7 7 7 7 6 7 6 6 7 8 8 7 7 6 5 4 2 2 2 2 3 3 2 2 2 1 2 4 3 3 3 4 3 4 5 5 6 5 5 6
3 3 3 2 1 1 1 3 4 5 5 6 7 7 8 9 9 10 10 11 11 11 11 11 10 9 8 7 9 10 7 6 6 5 6 6 7 7 8 8 8 9 8 8 8 9 9 9 7 7 8 7 6 6 6 7 8 8 6 6 7 5 4 4 2 3 2 1 3 4 2 2 3 4 3 2 3 3 3 3 4 4 5 5 6 6 6 7
3 3 3 2 1 1 1 3 4 5 5 6 7 7 8 9 9 10 10 10 10 10 10 10 10 9 8 8 9 9 8 7 6 6 6 7 7 7 8 8 8 8 9 8 8 8 9 9 8 8 8 7 7 7 6 7 7 6 4 4 5 3 2 3 1 3 3 3 5 5 2 4 5 6 4 2 3 3 3 4 4 5 6 6 6 6 6 7
3 3 3 2 1 0 1 3 4 4 5 6 6 7 8 9 9 10 10 10 10 10 10 10 9 8 8 8 9 8 8 8 7 7 8 7 7 7 8 8 8 8 8 8 8 8 8 8 8 8 9 8 8 8 7 6 5 5 4 2 2 2 3 3 1 3 3 3 6 5 3 5 5 7 6 4 4 5 4 5 5 6 6 6 6 6 6 7
3 3 3 2 1 0 1 3 4 4 5 6 6 7 8 8 9 9 10 10 10 10 10 10 9 8 7 8 8 7 8 8 8 9 8 8 8 7 8 8 8 8 8 8 8 8 8 7 7 7 8 8 7 6 6 5 4 3 3 3 2 2 3 4 2 4 3 3 5 5 4 4 5 7 7 5 5 5 5 5 6 6 6 6 7 7 6 6
3 3 3 2 1 0 1 2 3 4 5 5 6 7 7 8 9 9 10 10 10 10 10 9 9 8 8 8 8 7 7 8 8 8 9 9 8 7 8 8 8 8 8 9 9 8 8 7 7 7 7 7 6 5 4 4 4 2 3 3 3 2 3 3 1 2 2 2 4 6 6 5 4 6 6 5 6 6 6 6 6 6 6 6 7 7 7 6
4 3 3 2 1 1 1 2 3 4 5 5 6 6 7 7 8 9 9 10 10 10 10 9 9 8 8 8 7 7 7 8 8 8 9 9 8 8 8 8 8 8 8 9 9 9 8 8 7 7 6 6 6 5 4 4 4 3 2 2 4 3 3 3 2 2 1 1 4 6 6 6 6 6 5 6 6 6 6 7 7 6 6 6 7 7 7 7
5 4 3 2 2 1 1 2 3 4 5 5 6 6 7 7 8 8 9 10 10 9 9 10 9 8 8 9 8 7 6 7 8 8 9 9 9 8 8 8 8 8 8 8 9 9 9 8 7 7 6 5 6 5 5 6 5 3 3 3 4 4 5 5 4 3 3 3 4 4 6 8 8 7 6 7 7 7 8 8 7 6 7 7 7 8 8 8
5 4 3 2 2 2 2 2 3 4 5 6 6 6 6 6 7 8 9 10 10 10 9 10 11 9 8 9 9 7 6 6 7 8 9 9 9 8 7 7 7 8 8 8 8 8 8 8 7 8 8 7 8 8 8 9 7 6 6 6 6 6 7 7 6 5 5 4 4 5 7 8 9 8 7 7 8 9 9 7 6 6 7 7 8 8 8 9
6 5 4 3 2 3 3 3 3 5 6 6 6 5 5 5 6 7 9 10 11 11 10 11 12 11 9 9 8 6 6 6 7 8 9 9 9 8 8 7 7 7 8 9 9 9 8 9 9 9 9 9 9 9 9 9 8 8 7 7 8 8 8 8 7 7 5 5 7 6 7 8 9 8 6 7 8 9 9 8 7 7 7 8 8 9 9 10
7 6 4 3 3 3 3 3 4 5 6 5 5 5 5 5 6 7 9 10 11 12 12 12 13 12 11 11 9 7 6 6 7 8 9 9 9 8 8 7 6 7 8 9 9 8 8 9 10 10 9 9 9 9 9 9 8 9 8 8 9 9 10 10 9 9 6 6 8 7 7 9 9 8 5 5 7 9 11 11 10 9 9 9 10 10 10 10
7 6 5 4 4 3 3 4 4 5 5 5 5 5 5 6 6 8 8 9 11 12 13 13 13 14 13 12 11 9 7 7 8 8 9 9 9 9 8 7 7 8 8 8 8 8 8 10 11 9 9 8 8 9 9 10 10 10 8 8 9 9 9 10 10 9 7 6 8 8 8 10 10 9 8 6 8 9 11 12 12 11 11 12 12 12 11 11
7 6 6 5 4 3 4 4 5 5 5 5 5 5 6 6 6 7 8 9 10 11 12 13 13 14 13 12 12 10 9 9 9 9 10 9 9 9 9 8 8 8 8 9 10 9 9 10 9 8 8 8 9 9 8 9 10 10 9 9 10 9 8 10 10 9 8 8 9 8 8 10 10 9 9 8 9 9 10 12 13 13 13 14 14 13 13 13
8 6 6 5 4 3 4 4 5 6 6 6 5 6 6 7 7 7 8 9 9 10 11 12 13 14 14 12 12 11 10 10 10 9 10 10 8 8 9 9 8 9 10 10 11 11 11 11 9 7 8 9 9 9 8 9 10 11 11 11 11 11 10 11 10 10 10 10 10 8 9 10 9 9 10 10 10 10 10 11 13 14 15 14 14 14 14 15
8 7 6 5 4 3 4 4 5 6 6 6 6 6 6 7 8 8 8 8 9 10 11 11 12 14 13 12 12 12 10 11 12 11 11 11 9 7 8 9 9 10 11 10 10 11 12 12 10 9 9 9 10 10 10 10 10 11 12 13 13 13 12 12 11 9 9 10 11 9 9 11 10 10 11 11 11 11 10 11 13 14 14 14 15 16 16 16
9 7 6 6 5 5 5 5 6 6 6 7 7 7 7 8 8 8 7 7 8 10 10 11 11 12 13 12 12 11 9 10 12 12 11 11 11 8 8 9 9 9 10 9 9 10 11 10 9 9 10 9 10 11 11 9 8 10 11 13 13 12 11 11 10 9 9 11 11 10 9 11 12 11 12 12 12 12 11 12 14 15 14 14 15 16 16 17
10 9 7 7 7 7 7 7 7 7 7 7 8 8 8 8 7 7 7 6 8 9 9 10 11 11 12 12 12 10 9 10 10 11 12 12 12 10 9 10 9 9 9 8 9 10 10 9 8 9 9 9 10 11 12 10 8 11 11 10 11 11 11 11 10 10 11 11 11 10 9 10 11 12 12 13 12 12 12 12 12 13 14 15 15 16 16 16
11 10 9 8 8 9 9 8 8 8 8 8 8 8 8 7 7 7 6 6 8 9 9 10 11 11 11 12 13 12 9 8 8 10 12 13 12 10 10 12 11 10 10 9 10 11 10 9 10 10 10 11 12 12 12 11 11 13 12 9 10 10 10 10 9 9 11 10 10 11 9 9 11 12 11 11 10 11 12 12 12 13 14 14 15 16 16 16
12 11 10 10 9 9 10 9 9 9 9 10 9 9 8 7 7 6 6 7 8 8 9 10 10 10 10 11 13 13 10 9 8 9 10 12 13 10 10 12 11 11 11 10 12 12 11 11 11 11 11 13 14 14 13 13 13 13 11 9 9 9 9 9 9 10 10 9 10 11 10 9 11 11 10 9 9 10 12 12 13 14 15 15 16 17 17 16
13 12 12 11 10 10 10 10 10 11 11 11 10 10 9 8 7 6 7 8 8 8 9 9 10 10 9 10 12 12 12 11 10 9 9 10 12 10 10 11 10 11 11 10 12 13 12 12 12 11 12 14 14 14 13 14 13 12 10 9 10 11 11 11 11 10 10 11 11 11 10 8 9 9 9 9 10 11 12 13 14 15 17 17 17 17 17 17
14 13 13 12 11 10 10 11 11 12 12 11 11 10 9 9 8 7 9 10 9 9 8 9 10 9 9 11 11 11 11 12 10 10 10 9 9 10 10 11 10 10 11 11 12 12 11 11 11 11 12 11 11 12 12 12 12 11 10 10 12 13 12 11 12 10 10 11 12 11 9 7 7 8 9 10 11 11 12 13 14 16 17 18 18 18 17 17
15 14 14 13 13 12 11 11 12 12 12 12 11 10 10 10 11 11 11 10 9 10 9 10 10 9 10 10 10 11 11 12 11 11 12 10 9 10 11 13 12 10 10 11 11 11 11 10 10 11 11 10 9 10 11 11 10 10 10 10 11 12 11 12 13 11 11 11 11 11 10 8 8 8 9 11 12 12 12 13 15 16 17 19 19 18 17 17
16 15 14 14 14 13 12 13 13 12 12 12 11 11 10 10 12 13 12 10 10 10 10 11 10 10 10 10 10 12 11 11 12 11 12 12 11 12 13 13 13 11 11 12 10 10 10 11 10 10 10 9 8 9 10 11 10 10 10 11 12 11 10 12 13 12 12 12 11 11 10 9 9 9 10 11 12 12 12 13 14 15 16 18 18 18 18 18
17 15 14 14 14 14 14 14 14 13 12 12 12 12 12 12 13 13 13 13 12 11 10 11 10 9 10 11 12 12 11 11 12 11 12 12 12 13 13 12 12 12 12 12 11 10 10 11 11 10 11 10 9 9 9 9 9 10 11 11 11 11 10 12 12 11 12 12 11 12 11 10 10 10 12 13 13 13 12 13 14 15 16 17 17 17 17 17
16 15 14 14 14 15 15 15 14 13 13 12 12 12 14 15 14 13 14 14 13 11 11 10 10 9 10 12 12 12 12 12 12 11 11 12 13 13 13 12 12 12 12 13 13 12 11 13 13 13 13 11 10 10 9 8 9 11 10 10 11 11 11 12 12 12 12 11 12 13 12 12 12 13 14 14 14 13 13 15 16 17 18 17 17 18 17 17
16 14 14 14 15 15 15 16 15 13 13 13 12 14 16 16 15 14 14 14 13 13 12 11 10 10 11 12 12 12 12 12 11 11 11 11 12 12 12 13 12 12 12 13 13 12 11 12 14 13 12 11 10 11 10 9 11 11 10 10 12 11 10 11 12 12 11 11 13 13 13 13 13 14 16 14 14 15 16 17 17 17 18 17 17 17 17 17
16 15 14 15 15 15 15 16 15 14 14 13 14 16 17 15 15 15 14 14 13 13 12 12 12 11 12 12 12 12 12 12 11 11 11 11 12 12 12 13 12 12 12 13 13 13 12 13 14 12 12 12 12 11 11 10 11 11 11 12 12 11 11 11 12 12 11 13 15 14 14 14 14 15 17 16 16 17 18 18 17 17 17 17 17 17 17 17
17 16 16 16 16 15 16 15 14 14 13 13 15 17 16 15 15 15 14 14 14 12 12 13 14 13 13 13 13 13 12 12 12 12 12 12 12 12 12 13 12 12 12 12 12 13 12 13 15 14 13 14 12 11 12 12 11 10 12 13 12 12 12 12 12 13 13 14 16 16 16 16 16 16 17 17 17 18 18 17 17 17 17 17 18 18 18 18
17 17 16 17 16 16 15 15 14 14 13 14 16 16 16 16 15 15 14 14 14 13 13 15 15 14 14 14 14 14 13 13 13 13 13 13 13 12 12 13 13 13 12 11 12 13 12 12 14 15 14 14 13 11 13 14 14 12 12 13 13 13 13 14 13 14 14 15 16 17 17 17 18 18 16 16 17 18 18 17 17 18 19 19 19 20 20 21
18 17 18 18 17 16 16 15 14 14 14 16 17 17 16 16 16 15 14 15 15 14 14 16 15 14 15 15 15 14 13 13 13 13 13 14 13 14 14 13 14 15 14 12 12 13 13 13 15 16 15 14 13 13 14 15 16 15 14 14 15 15 15 15 15 15 15 16 17 17 18 19 19 19 17 16 18 19 19 18 19 20 21 21 22 22 23 23
18 17 19 18 17 17 16 15 15 15 15 16 17 17 17 16 16 15 14 14 14 15 15 15 15 16 16 15 15 16 14 14 14 14 14 14 14 15 15 14 15 16 15 13 13 14 14 14 15 16 16 14 15 16 16 16 17 16 15 16 16 16 16 16 17 18 17 17 17 18 20 21 20 19 18 18 20 21 21 20 21 23 24 25 25 25 26 26
18 18 20 19 18 18 16 16 17 16 16 17 17 18 17 17 16 16 15 14 14 14 15 15 15 16 16 16 16 16 15 15 15 15 15 15 15 16 17 16 16 16 15 15 16 16 15 15 15 16 17 17 18 19 17 17 17 15 16 17 16 17 17 16 18 19 19 19 19 19 21 23 22 20 20 22 24 23 22 23 24 26 27 28 28 28 28 28
19 20 21 19 19 18 17 17 18 17 18 18 18 18 18 17 17 17 16 16 15 16 15 16 16 16 17 17 17 16 16 16 16 17 17 17 17 17 18 18 17 17 16 16 18 17 17 16 16 18 19 19 19 19 18 18 17 16 18 18 17 18 18 18 19 20 21 22 21 21 23 24 24 22 22 24 25 23 23 25 26 28 29 29 29 29 29 29
20 21 21 19 19 19 18 19 20 19 19 19 18 18 19 18 17 17 17 17 17 17 17 17 17 17 17 17 17 17 17 17 17 18 18 18 18 18 18 17 18 18 18 19 19 19 18 18 18 18 19 19 19 19 20 20 19 19 20 20 19 19 19 19 21 20 22 23 22 22 25 25 24 23 23 24 25 25 27 28 29 30 31 31 31 30 30 30
20 21 21 20 18 18 19 20 20 20 20 19 19 19 19 19 18 18 18 18 18 18 18 18 18 18 18 18 17 18 18 17 18 19 19 19 20 19 18 18 18 19 19 20 20 20 19 20 19 19 19 20 20 21 22 22 22 22 22 22 22 21 21 22 22 21 23 24 23 25 27 27 26 26 25 26 28 30 31 32 32 31 31 32 32 31 31 31
20 21 21 20 19 18 19 20 20 20 21 20 20 21 20 20 20 20 19 19 19 19 18 19 19 18 18 18 18 18 18 18 18 19 19 20 20 20 20 19 19 19 19 19 19 20 20 21 21 20 21 22 22 23 23 23 23 24 25 25 24 23 23 23 23 24 25 25 27 30 29 29 30 29 29 30 31 32 33 33 33 32 32 32 31 31 31 31
21 21 21 21 20 20 20 20 20 21 22 22 22 22 22 22 22 21 20 20 20 19 19 19 20 19 19 19 19 19 20 19 18 19 19 20 21 21 21 20 20 20 20 19 20 20 20 21 22 21 22 23 23 24 23 23 24 26 27 28 27 26 25 25 26 28 26 26 30 30 27 29 31 30 30 32 32 33 33 33 33 32 31 31 31 31 31 31
22 22 22 21 22 21 21 21 21 21 22 22 22 23 22 22 22 22 22 22 21 20 20 20 20 20 21 21 20 20 20 20 20 20 20 21 21 21 22 21 21 21 20 20 21 20 19 22 22 22 24 25 25 25 25 25 27 27 28 29 29 28 28 28 29 28 26 29 32 30 28 31 33 30 31 33 33 33 33 32 32 32 31 31 31 31 31 31
23 23 23 22 23 23 22 22 22 21 22 23 23 23 23 23 23 23 23 22 22 22 21 21 22 22 22 22 21 21 22 21 21 22 22 21 21 22 22 23 23 23 21 21 22 21 21 23 24 24 26 27 27 28 28 28 28 29 29 29 29 28 29 30 30 29 28 31 34 33 33 34 32 31 31 32 31 32 32 32 32 31 31 31 31 31 31 31
24 24 24 23 23 24 23 23 23 22 23 24 23 24 24 23 24 24 23 22 23 23 22 22 23 23 22 21 21 21 23 23 22 23 23 21 22 23 23 24 24 24 23 22 23 23 22 24 25 25 27 29 28 27 27 28 28 29 30 30 29 29 29 30 30 29 29 31 32 32 33 33 31 30 31 30 30 30 31 31 32 32 32 32 32 32 32 32
25 25 25 24 24 24 24 24 23 23 24 24 24 24 24 24 25 24 23 23 23 23 23 23 23 23 22 21 21 22 24 24 23 23 23 23 23 24 24 24 25 24 24 24 24 24 24 25 25 24 27 30 28 26 26 27 27 30 31 31 31 30 29 29 28 28 27 28 28 29 30 31 31 31 31 31 30 31 32 33 33 33 33 33 33 33 33 33
26 26 25 25 25 26 25 25 24 24 26 25 25 25 24 25 25 24 23 24 23 23 23 24 23 22 22 22 22 23 25 25 24 24 24 23 23 24 24 25 25 25 25 25 25 25 24 25 25 25 26 29 28 25 25 25 27 29 30 29 28 27 26 26 26 26 26 26 27 29 30 30 31 31 31 31 31 32 33 33 33 34 34 34 34 34 35 35
Wind_Direction
357 357 354 344 324 296 240 212 201 199 197 193 191 189 189 189 189 188 187 187 189 190 190 190 193 196 197 200 202 204 207 211 215 214 215 212 208 208 206 203 200 198 198 201 207 209 210 201 194 185 166 184 226 5 14 31 52 47 50 45 39 39 35 36 38 50 61 92 132 124 116 104 98 103 93 80 78 90 91 78 83 83 81 89 94 107 115 116
0 1 360 355 340 319 213 192 190 191 190 187 186 187 188 188 188 187 187 187 189 191 191 192 193 195 197 199 201 204 208 213 221 224 221 215 210 209 208 207 202 195 194 200 208 205 201 203 206 199 184 225 256 251 360 20 62 50 51 42 37 40 33 32 41 64 58 99 136 133 124 121 117 112 98 82 83 95 91 79 84 86 87 92 102 113 118 120
2 4 6 5 356 6 157 174 179 184 184 183 184 185 187 188 188 187 187 188 190 192 192 194 195 197 198 200 202 203 207 217 226 227 221 213 210 210 207 206 203 200 200 203 207 204 200 201 206 209 218 243 255 263 317 2 20 23 44 32 21 31 21 18 27 50 50 108 130 132 129 129 127 116 100 88 89 91 91 92 93 97 102 105 113 120 124 127
0 4 10 13 13 51 137 160 170 178 180 181 183 184 186 188 188 187 188 190 192 193 194 196 197 198 199 202 203 201 207 217 220 216 210 208 208 208 205 203 203 203 206 207 206 206 202 202 211 220 226 239 265 279 259 266 323 350 56 46 341 17 20 11 13 24 43 117 131 129 122 129 137 120 105 102 91 72 86 123 119 117 121 121 124 128 132 136
360 2 11 16 22 65 132 150 163 173 177 180 182 184 186 188 188 188 189 191 194 194 196 197 197 198 199 201 199 201 203 201 207 208 206 208 208 205 202 200 201 204 206 205 206 207 206 208 215 224 231 241 266 281 242 254 310 322 336 238 294 3 19 6 7 20 47 111 128 128 127 135 141 126 127 125 102 78 117 145 138 129 131 133 134 135 140 144
4 0 8 16 25 68 137 148 159 167 174 178 180 183 185 188 188 188 189 192 194 195 196 197 197 197 198 198 197 200 197 195 206 208 206 208 205 200 196 196 199 203 204 204 208 211 211 213 218 223 230 246 249 243 244 265 293 295 294 277 295 326 356 1 1 7 47 115 131 136 136 132 130 131 151 151 141 118 122 136 133 131 136 137 139 142 149 153
9 3 7 15 24 73 144 150 158 162 170 176 179 182 184 187 187 188 189 192 195 195 196 196 196 197 197 197 197 199 201 209 216 210 207 204 198 191 189 194 199 202 203 205 209 212 215 217 220 218 225 247 237 237 254 274 278 257 278 291 311 312 311 342 347 345 35 136 141 131 128 133 140 142 145 168 192 156 101 123 123 127 133 135 143 152 159 162
15 10 9 13 20 67 153 156 159 162 166 173 178 181 183 186 187 188 189 192 195 195 196 195 196 197 195 196 198 203 210 216 217 210 204 196 192 189 189 196 203 205 205 208 209 211 216 217 220 218 225 233 225 243 265 283 280 242 269 293 309 311 311 330 342 343 82 154 140 128 136 150 156 143 140 188 206 153 93 121 123 132 137 142 153 164 171 173
20 15 11 7 14 64 159 161 161 163 165 171 176 180 182 185 186 188 189 193 195 195 196 195 196 196 195 196 195 203 213 212 215 215 207 202 200 196 198 203 205 205 207 211 210 209 213 217 222 217 218 223 224 246 258 270 270 253 270 288 297 304 311 329 343 356 149 155 147 145 148 152 150 131 160 209 202 140 115 130 137 149 157 169 173 178 183 184
20 19 17 5 11 55 160 163 164 165 166 171 176 179 181 184 186 187 189 192 194 196 196 195 196 194 196 199 192 199 211 208 213 213 208 208 205 203 207 209 206 206 208 212 210 208 212 215 218 214 215 220 226 244 246 239 258 270 274 274 279 294 302 313 328 298 151 149 160 164 172 180 172 138 199 225 199 149 145 150 161 170 177 189 191 195 196 197
19 22 22 13 12 32 160 167 168 168 170 173 176 180 182 184 185 186 188 190 193 194 195 195 195 195 199 199 194 201 208 208 213 211 207 207 207 210 212 210 208 207 207 211 213 211 209 210 211 213 218 223 235 249 250 248 269 282 279 274 276 288 294 287 274 230 165 140 171 152 147 209 223 235 243 229 196 175 172 173 189 193 197 199 200 207 211 213
16 19 22 21 14 20 159 172 173 171 173 175 179 182 183 184 185 186 187 188 192 193 193 194 194 198 201 203 207 210 210 212 218 217 212 210 213 218 215 212 210 207 207 210 215 212 209 210 211 217 220 224 240 246 252 272 284 281 273 273 276 290 296 275 238 213 202 191 174 135 131 233 233 231 243 232 202 200 195 197 211 212 212 211 211 219 225 224
11 11 16 21 17 13 170 178 178 177 176 177 181 183 184 186 186 186 186 188 190 191 192 193 196 201 203 209 215 215 216 217 220 222 218 214 218 224 219 214 211 210 209 209 210 210 211 215 216 222 224 225 238 244 261 284 284 272 265 260 268 287 273 251 206 197 218 214 176 155 197 241 243 240 241 239 210 204 211 219 225 223 219 216 218 227 234 231
7 4 5 12 12 357 187 182 181 181 179 178 180 184 186 187 187 188 188 188 189 190 193 194 198 203 204 213 218 219 220 219 221 224 221 216 218 224 220 214 212 212 209 207 208 208 209 213 217 226 231 233 242 254 270 280 273 266 263 245 247 242 229 240 226 191 217 224 187 175 238 251 251 248 242 239 221 208 215 226 232 230 224 223 224 229 238 237
356 355 355 356 353 337 189 184 186 185 183 182 181 184 187 187 189 189 189 190 190 190 192 196 202 203 208 221 221 217 217 219 226 226 223 219 217 223 220 211 211 210 207 207 206 207 208 210 218 226 235 240 244 253 263 264 264 259 234 232 232 206 236 253 226 189 209 245 211 199 242 264 265 255 245 237 227 216 217 228 234 234 231 229 228 230 236 241
343 340 338 334 333 312 186 182 187 188 185 185 185 186 188 188 190 190 190 191 190 191 194 200 205 203 208 220 217 213 219 223 227 226 222 220 219 221 212 204 209 210 210 210 208 212 215 218 223 226 232 237 232 235 254 257 254 231 192 219 242 247 258 254 236 217 207 249 250 236 247 269 280 275 259 235 223 218 224 233 236 239 239 236 233 234 239 244
339 330 320 310 303 274 197 182 183 186 183 183 187 187 186 188 190 190 191 192 192 195 199 203 206 210 216 218 215 217 224 225 225 222 219 218 219 215 204 205 212 212 215 217 215 218 221 224 227 229 229 228 221 222 241 240 226 221 211 227 244 248 248 237 249 289 307 255 259 257 259 262 270 285 274 242 227 219 226 235 239 241 243 242 239 240 245 247
342 331 315 292 274 251 214 192 185 185 180 179 183 184 182 185 190 193 194 196 197 200 207 209 206 212 218 215 215 219 225 230 226 218 213 213 214 213 210 213 214 215 221 222 221 221 223 228 228 231 235 228 218 210 214 216 205 215 246 260 264 255 235 227 238 279 302 278 248 250 266 269 273 279 266 249 236 225 228 233 237 242 243 245 244 245 248 248
348 338 322 293 264 243 225 207 194 184 174 169 171 174 179 187 196 201 200 202 205 205 211 211 205 208 212 210 214 222 231 231 222 215 211 208 210 215 218 219 217 217 220 222 225 223 221 228 232 232 232 224 218 212 213 219 218 230 245 251 263 266 247 233 241 266 275 271 254 242 256 267 272 276 267 254 245 239 243 242 241 246 248 250 250 250 249 248
348 340 326 301 267 248 231 216 201 185 177 175 177 180 190 201 205 209 211 213 216 215 218 215 210 217 221 216 217 226 235 228 218 216 212 208 207 212 221 225 223 223 221 217 224 226 220 226 230 226 222 220 221 220 222 228 232 243 252 256 259 260 256 249 251 262 263 264 265 257 258 264 271 284 279 251 244 245 245 243 247 249 249 252 253 253 252 251
343 335 322 303 273 255 234 219 202 188 187 190 193 196 204 209 210 217 221 223 226 224 225 222 218 225 228 223 224 228 234 234 226 219 214 211 206 210 222 224 219 227 228 218 220 229 222 222 224 219 218 222 223 223 230 238 241 246 251 261 265 255 254 258 260 267 267 258 271 280 276 269 271 284 285 246 239 241 236 238 248 251 253 257 255 256 256 254
337 328 316 299 274 257 235 218 201 193 195 199 205 211 213 217 223 226 224 228 234 228 224 223 222 228 229 226 228 229 230 234 233 226 214 210 213 218 221 218 215 223 228 220 221 230 226 225 225 220 220 226 229 229 234 243 246 246 245 254 261 256 259 266 268 275 271 263 276 283 275 271 273 279 278 259 248 248 243 242 249 253 259 261 259 260 259 254
332 325 314 297 277 257 229 209 199 199 204 206 213 219 225 235 238 232 225 229 236 232 223 220 220 225 227 227 227 223 221 224 229 229 216 209 218 223 218 217 218 221 224 217 215 217 219 224 226 225 225 230 240 240 238 252 256 247 242 248 255 257 262 264 270 279 277 278 278 273 274 278 282 286 283 275 268 264 256 252 255 257 258 259 260 262 261 258
323 320 311 298 278 243 211 200 203 210 217 221 225 231 239 245 241 236 233 231 234 235 226 220 219 221 225 228 223 217 220 223 224 226 218 210 215 222 221 219 218 222 226 217 209 214 224 229 229 236 235 230 242 247 242 254 261 251 242 244 251 257 254 252 266 281 283 285 280 281 290 286 287 293 288 289 287 276 265 260 260 258 259 262 265 265 263 261
313 310 303 293 272 229 207 212 219 221 224 229 236 245 253 253 246 238 235 235 236 236 229 221 221 221 223 224 218 216 222 226 225 223 216 211 211 220 227 222 220 225 222 214 211 221 234 238 234 242 244 235 240 247 246 250 260 262 249 240 245 254 256 257 268 281 287 286 283 290 291 280 286 291 285 292 296 286 280 272 266 266 268 269 267 266 264 262
305 301 294 285 265 237 228 233 233 231 232 235 243 253 261 258 249 235 231 237 237 234 228 221 221 221 219 219 217 216 225 233 229 221 216 216 216 219 228 229 229 226 215 213 220 226 237 242 235 236 241 241 246 251 251 250 260 267 253 240 243 250 254 260 262 266 276 280 285 290 277 272 286 289 285 293 294 288 286 278 273 274 275 272 270 270 267 263
296 293 286 278 262 243 242 246 243 242 242 246 252 257 261 257 243 231 232 242 238 230 223 220 221 218 218 219 213 210 223 233 227 221 220 219 220 223 230 233 229 225 219 220 232 232 231 239 244 242 243 248 253 256 253 248 252 260 254 243 243 244 247 253 255 262 271 278 288 290 273 272 282 283 287 296 295 293 290 282 278 276 273 273 275 274 270 265
289 286 280 273 263 247 245 249 249 248 248 253 258 259 259 250 234 228 226 231 233 226 220 222 220 219 221 220 214 213 223 224 220 230 230 221 222 227 232 232 224 226 229 223 233 236 229 236 248 248 252 255 251 251 248 244 252 257 254 250 245 245 250 254 258 269 278 280 283 284 278 274 277 282 293 299 298 295 290 286 284 283 282 280 278 278 274 269
286 281 275 270 262 250 246 247 248 252 254 257 261 258 253 239 232 232 225 228 231 225 222 222 218 220 223 217 216 222 228 227 226 235 232 222 223 227 231 231 224 229 238 232 233 238 235 241 248 249 255 257 253 252 245 242 254 256 251 255 260 263 265 265 265 270 282 283 274 277 280 273 276 286 297 298 297 294 288 286 285 288 292 290 285 283 280 275
284 278 272 267 257 249 247 248 251 256 258 259 259 253 243 235 234 233 232 233 231 226 225 221 219 224 223 213 218 227 227 230 234 233 230 228 228 230 233 233 229 232 241 244 239 240 246 250 253 256 257 255 254 255 249 246 253 255 253 260 269 274 274 274 273 271 279 280 269 270 275 272 275 283 289 288 286 288 287 288 289 292 297 298 294 290 286 282
282 277 269 261 252 251 251 251 256 260 258 257 255 246 236 238 237 229 233 236 233 234 230 225 226 227 222 216 222 230 227 231 237 231 230 235 234 236 239 239 241 243 246 248 244 248 257 255 255 260 263 263 259 257 258 262 263 259 260 263 265 271 274 273 276 273 269 269 265 266 273 274 272 274 285 286 284 287 288 287 291 293 296 300 300 297 293 288
279 275 267 254 249 254 255 256 262 262 257 251 246 239 233 239 240 234 238 241 237 236 230 228 232 228 224 225 228 233 232 234 238 232 228 232 234 236 237 234 235 244 248 245 244 253 256 252 259 266 267 271 265 257 264 272 271 260 257 257 258 267 274 270 271 270 264 263 262 264 272 274 264 263 277 284 286 290 288 285 288 290 295 300 303 301 297 292
277 273 265 250 244 251 255 261 265 262 255 245 238 237 233 235 239 237 238 240 236 236 232 231 236 230 226 229 234 237 235 235 240 237 233 233 234 237 239 237 234 238 244 242 245 255 255 258 271 273 268 269 260 253 260 265 265 257 248 248 252 260 268 268 269 270 268 266 264 265 270 269 263 264 271 276 278 279 282 287 290 293 297 301 302 300 297 295
275 269 260 247 242 250 257 263 266 260 251 241 234 236 234 235 240 238 237 238 238 240 237 235 238 238 233 230 234 236 233 235 239 238 238 238 237 240 244 250 247 241 241 244 247 249 249 256 265 265 265 269 264 254 251 252 258 257 247 245 252 254 258 262 263 262 264 268 268 267 269 262 255 260 266 267 271 276 285 295 302 306 306 305 305 304 301 297
274 265 255 245 243 251 259 263 263 256 246 240 237 237 235 238 242 239 236 237 237 239 240 238 233 235 239 235 235 235 231 234 237 236 240 239 235 239 244 251 254 247 240 242 247 248 247 252 258 261 262 265 266 263 259 255 257 257 252 254 260 258 257 262 261 257 260 267 270 267 265 262 259 262 267 269 276 287 297 304 309 311 309 308 309 307 303 298
269 260 251 244 246 254 260 262 260 251 242 238 239 239 237 239 240 236 236 236 234 233 237 240 234 230 237 236 235 238 235 235 235 234 239 237 234 239 243 246 252 252 244 240 245 249 248 252 260 265 266 264 262 262 264 261 256 259 261 260 261 259 258 261 263 267 268 267 269 267 264 269 268 267 273 280 286 293 297 299 303 306 308 309 307 305 303 300
264 259 251 248 252 259 262 261 255 245 239 236 236 239 239 239 237 234 237 238 234 231 230 235 236 231 233 233 234 239 237 235 236 233 233 235 237 242 246 246 248 252 249 243 246 249 246 253 262 263 261 264 264 262 265 265 257 258 260 257 260 265 265 261 264 274 276 268 270 270 266 268 266 266 276 286 290 291 292 292 295 301 305 306 306 305 303 301
261 258 251 250 256 263 264 259 249 239 237 238 239 240 240 239 238 237 239 239 236 235 232 233 236 234 231 231 235 240 238 236 239 236 231 234 237 240 244 247 248 256 259 251 249 253 251 254 261 260 256 263 269 264 265 271 268 258 256 258 262 263 265 267 266 270 271 270 273 274 270 266 264 267 277 284 286 288 289 290 292 296 299 301 303 305 304 303
259 254 249 250 258 266 262 252 244 240 238 240 239 240 240 239 240 240 241 239 235 236 235 234 236 236 234 232 234 239 239 237 239 238 235 236 239 241 245 247 250 260 266 258 251 256 256 252 256 258 256 260 268 266 263 269 272 268 266 270 268 262 262 267 268 266 267 269 273 276 277 272 266 267 270 277 283 285 287 289 291 293 297 299 300 302 304 303
256 251 246 250 259 265 257 246 244 243 241 240 239 239 241 240 242 244 243 239 236 237 237 236 236 237 237 237 237 240 241 239 238 239 241 241 241 245 249 250 252 259 264 262 257 258 260 256 255 259 261 262 265 264 261 263 267 269 271 273 273 271 269 269 271 271 269 269 270 274 277 273 270 269 268 274 283 284 286 289 289 293 297 299 299 301 302 303
254 249 247 254 262 261 253 245 245 243 241 242 241 241 243 241 242 247 248 242 239 239 238 235 235 236 236 238 240 241 243 243 241 242 244 245 242 244 250 254 255 256 260 264 264 263 262 259 258 262 265 263 262 262 261 262 262 263 266 269 269 271 271 269 272 273 271 270 269 270 274 273 271 271 271 275 281 283 287 289 290 294 298 299 300 301 301 302
252 249 250 257 262 257 249 244 245 243 240 241 242 243 244 243 243 247 250 247 243 242 241 238 238 238 238 239 241 241 242 245 246 244 244 246 245 246 255 261 259 257 258 260 263 263 261 261 262 263 262 260 262 265 266 266 264 263 267 269 267 270 271 267 268 271 272 272 271 272 275 274 272 272 275 277 279 282 288 291 291 294 297 299 302 302 302 302
251 251 252 258 261 253 245 245 247 245 243 244 244 244 244 243 244 246 248 248 246 246 245 243 242 242 241 241 243 242 242 245 247 245 245 247 250 254 261 264 261 261 262 261 263 265 264 264 266 267 267 267 268 269 268 268 268 267 270 271 269 271 271 265 265 269 271 271 271 273 275 274 275 276 278 278 276 279 287 293 293 294 296 299 301 301 301 300
253 253 251 257 260 250 243 243 244 243 246 247 246 246 246 244 244 246 247 246 246 245 245 245 245 245 245 244 244 244 244 246 248 248 248 248 252 257 264 266 262 262 264 261 261 265 266 265 266 269 273 273 273 271 269 269 269 267 269 272 272 272 272 271 271 272 272 270 267 268 272 273 274 278 282 283 282 284 290 294 294 294 296 298 298 299 299 298
254 252 250 255 257 248 242 243 241 241 244 245 245 246 247 246 246 247 246 246 248 245 244 248 248 247 248 248 248 250 250 249 248 250 251 251 253 257 264 267 264 262 264 264 264 265 265 265 266 266 266 266 267 267 266 266 268 268 269 273 274 273 272 273 273 271 271 270 267 266 270 274 276 280 284 287 288 289 291 293 295 294 295 297 297 297 297 297
252 251 251 254 254 248 245 246 244 242 242 241 243 244 245 246 248 249 246 247 251 249 247 250 251 249 251 251 250 254 256 254 251 251 252 252 254 257 261 265 266 264 265 269 270 267 266 268 267 264 262 262 263 264 266 267 269 270 271 273 272 272 272 273 271 269 268 271 271 269 270 274 276 280 283 285 287 287 288 291 293 293 294 295 295 296 296 297
251 249 250 251 252 250 249 249 248 245 242 241 242 244 244 246 248 249 249 249 252 251 250 253 254 251 250 250 249 252 256 257 255 253 252 253 255 258 260 263 266 267 266 269 271 268 267 270 269 265 265 265 264 265 268 269 268 268 270 271 271 270 270 270 269 269 270 271 273 272 271 273 276 278 281 283 284 285 286 289 290 291 292 293 293 295 296 298
251 249 248 248 249 247 247 250 249 247 245 244 244 246 246 247 248 248 250 252 254 253 252 253 257 255 252 250 249 250 253 255 256 254 252 253 256 258 260 261 264 266 266 268 271 267 266 268 267 267 269 269 268 269 270 270 269 269 268 269 270 269 267 267 268 269 268 268 272 274 274 275 277 278 279 280 282 283 284 286 287 288 290 291 293 295 296 297
251 250 249 248 248 246 245 248 248 247 246 246 247 247 246 246 248 249 251 253 255 256 254 251 255 259 256 252 250 250 250 251 253 254 253 254 255 256 258 259 261 265 265 267 270 269 267 268 267 268 271 271 271 272 272 272 272 273 271 270 269 268 267 268 270 269 267 269 272 274 276 277 276 276 277 279 281 282 283 284 286 288 290 291 293 294 295 296
251 250 249 249 248 247 246 247 246 245 247 248 247 248 247 247 248 250 252 252 252 256 256 251 252 256 257 254 252 252 251 249 251 253 251 253 257 256 257 258 260 265 268 267 269 271 271 270 269 271 274 273 273 274 274 273 271 272 274 273 271 271 271 272 272 271 270 272 273 275 276 277 276 276 279 281 282 283 284 285 287 288 290 292 293 294 294 294
251 250 249 248 249 249 248 248 246 244 247 248 246 248 249 248 249 250 252 253 251 252 254 250 250 255 258 256 254 253 252 250 251 252 250 252 256 256 257 258 258 264 269 267 269 271 271 272 273 276 275 274 275 277 276 275 273 272 274 274 271 271 272 272 272 271 270 271 274 277 277 276 277 279 281 281 281 282 283 284 285 286 288 290 292 293 293 293
252 251 250 248 249 250 248 248 248 246 247 248 247 248 249 249 251 250 251 254 253 253 253 250 249 254 257 254 254 255 255 253 253 254 253 254 257 257 258 258 258 262 265 266 269 271 270 271 274 274 273 273 275 275 276 278 277 275 274 272 270 269 270 272 272 272 271 272 275 277 276 275 276 279 281 281 281 280 281 282 283 285 287 288 289 290 291 291